Weather History for Palm Springs, CA

Change the Weather History Date:

Friday, June 28, 2013

  Actual Average Record
Temperature  
Mean Temperature 99 °F 90 °F  
Max Temperature 118 °F 105 °F 118 °F (1974)
Min Temperature 79 °F 74 °F 58 °F (1941)
Degree Days  
Heating Degree Days 0 0  
Month to date heating degree days 0 0  
Since 1 June heating degree days 0 0  
Since 1 July heating degree days 760 874  
Cooling Degree Days 34 25  
Month to date cooling degree days 674 597  
Year to date cooling degree days 1716 1356  
Since 1 June cooling degree days 674 597  
Growing Degree Days 50 (Base 50)    
Moisture  
Dew Point 49 °F    
Average Humidity 27    
Maximum Humidity 46    
Minimum Humidity 7    
Precipitation  
Precipitation 0.00 in 0.00 in 0.00 in (2014)
Month to date precipitation 0.00 0.05  
Year to date precipitation 0.97 2.93  
Since 1 July precipitation 2.19 5.73  
Snow  
Snow 0.00 in - - ()
Month to date snowfall 0.0  
Year to date snowfall 0.0  
Since 1 July snowfall 0.0  
Snow Depth 0.00 in    
Sea Level Pressure  
Sea Level Pressure 29.76 in    
Wind  
Wind Speed 5 mph (NW)    
Max Wind Speed 22 mph    
Max Gust Speed 26 mph    
Visibility 10 miles    
Events      
T = Trace of Precipitation, MM = Missing Value Source: NWS Daily Summary

Daily Weather History Graph

Daily Weather History Graph

Search for Another Location

Airport:

Trip Planner

Search our weather history database for the weather conditions in past years. The results will help you decide how hot, cold, wet, or windy it might be!

Date:

Astronomy

Jun. 28, 2013 Rise Set
Actual Time 5:37 AM PDT 8:00 PM PDT
Civil Twilight 5:08 AM PDT 8:29 PM PDT
Nautical Twilight 4:33 AM PDT 9:05 PM PDT
Astronomical Twilight 3:53 AM PDT 9:44 PM PDT
Moon 11:51 PM PDT (6/28) 11:32 AM PDT (6/28)
Length of Visible Light 15h 21m
Length of Day
14h 23m
Waning Gibbous, 65% of the Moon is Illuminated
Jun 28
Waning Gibbous
Jun 29
Last Quarter
Jul 8
New
Jul 15
First Quarter
Jul 22
Full

Hourly Weather History & Observations

Time (PDT) Temp. Heat Index Dew Point Humidity Pressure Visibility Wind Dir Wind Speed Gust Speed Precip Events Conditions
12:53 AM 89.1 °F 87.3 °F 55.9 °F 32% 29.83 in 10.0 mi Calm Calm - N/A   Clear
1:53 AM 89.1 °F 87.3 °F 55.9 °F 32% 29.83 in 10.0 mi Calm Calm - N/A   Clear
2:53 AM 90.0 °F 87.5 °F 53.1 °F 28% 29.81 in 10.0 mi Calm Calm - N/A   Clear
3:53 AM 86.0 °F 84.7 °F 55.9 °F 36% 29.81 in 10.0 mi Calm Calm - N/A   Clear
4:53 AM 84.0 °F 83.5 °F 57.9 °F 41% 29.81 in 10.0 mi Calm Calm - N/A   Clear
5:53 AM 82.9 °F 82.8 °F 59.0 °F 44% 29.82 in 10.0 mi Calm Calm - N/A   Clear
6:53 AM 87.1 °F 85.7 °F 55.9 °F 35% 29.83 in 10.0 mi Calm Calm - N/A   Clear
7:53 AM 91.9 °F - 50.0 °F 24% 29.83 in 10.0 mi SSW 3.5 mph - N/A   Clear
8:53 AM 95.0 °F - 48.9 °F 21% 29.83 in 10.0 mi Calm Calm - N/A   Clear
9:53 AM 105.1 °F - 46.0 °F 14% 29.82 in 10.0 mi Calm Calm - N/A   Clear
10:53 AM 108.0 °F - 44.1 °F 12% 29.81 in 10.0 mi Variable 4.6 mph - N/A   Clear
11:53 AM 111.0 °F - 44.1 °F 11% 29.79 in 10.0 mi Variable 3.5 mph - N/A   Partly Cloudy
12:53 PM 115.0 °F - 43.0 °F 9% 29.76 in 10.0 mi NW 11.5 mph 20.7 mph N/A   Scattered Clouds
1:53 PM 115.0 °F - 41.0 °F 8% 29.74 in 10.0 mi NNW 16.1 mph - N/A   Scattered Clouds
2:53 PM 116.1 °F - 37.0 °F 7% 29.72 in 10.0 mi NW 8.1 mph 17.3 mph N/A   Clear
3:53 PM 117.0 °F - 41.0 °F 8% 29.70 in 10.0 mi NW 16.1 mph 24.2 mph N/A   Scattered Clouds
4:53 PM 115.0 °F - 44.1 °F 9% 29.67 in 10.0 mi NW 13.8 mph 23.0 mph N/A   Clear
5:53 PM 113.0 °F - 48.0 °F 12% 29.67 in 10.0 mi NW 18.4 mph 24.2 mph N/A   Clear
6:53 PM 109.0 °F - 52.0 °F 15% 29.67 in 10.0 mi NW 17.3 mph 27.6 mph N/A   Clear
7:53 PM 107.1 °F - 48.0 °F 14% 29.67 in 10.0 mi NW 17.3 mph - N/A   Clear
8:53 PM 105.1 °F - 44.1 °F 13% 29.68 in 10.0 mi NW 16.1 mph 25.3 mph N/A   Clear
9:53 PM 102.9 °F - 44.1 °F 14% 29.70 in 10.0 mi NW 13.8 mph 18.4 mph N/A   Clear
10:53 PM 100.0 °F - 46.0 °F 16% 29.70 in 10.0 mi Calm Calm - N/A   Clear
11:53 PM 96.1 °F - 50.0 °F 21% 29.71 in 10.0 mi Calm Calm - N/A   Clear